TimePDT,TemperatureF,Dew PointF,Humidity,Sea Level PressureIn,VisibilityMPH,Wind Direction,Wind SpeedMPH,Gust SpeedMPH,PrecipitationIn,Events,Conditions,WindDirDegrees,DateUTC
12:15 AM,59.0,55.4,88,29.71,10.0,Calm,Calm,-,N/A,,Overcast,0,2013-09-21 07:15:00
12:35 AM,59.0,53.6,82,29.71,10.0,Calm,Calm,-,N/A,,Overcast,0,2013-09-21 07:35:00
12:55 AM,57.2,53.6,88,29.71,10.0,Calm,Calm,-,N/A,,Mostly Cloudy,0,2013-09-21 07:55:00
1:15 AM,57.2,53.6,88,29.71,10.0,Calm,Calm,-,N/A,,Mostly Cloudy,0,2013-09-21 08:15:00
1:35 AM,57.2,53.6,88,29.72,10.0,Calm,Calm,-,N/A,,Overcast,0,2013-09-21 08:35:00
1:55 AM,57.2,53.6,88,29.72,10.0,Calm,Calm,-,N/A,,Mostly Cloudy,0,2013-09-21 08:55:00
2:15 AM,55.4,53.6,94,29.72,10.0,Calm,Calm,-,N/A,,Scattered Clouds,0,2013-09-21 09:15:00
2:35 AM,55.4,51.8,88,29.71,10.0,Calm,Calm,-,N/A,,Partly Cloudy,0,2013-09-21 09:35:00
2:55 AM,55.4,51.8,88,29.72,10.0,Calm,Calm,-,N/A,,Partly Cloudy,0,2013-09-21 09:55:00
3:15 AM,55.4,51.8,88,29.72,10.0,Calm,Calm,-,N/A,,Clear,0,2013-09-21 10:15:00
3:35 AM,53.6,51.8,94,29.72,10.0,Calm,Calm,-,N/A,,Clear,0,2013-09-21 10:35:00
3:55 AM,53.6,51.8,94,29.72,10.0,Calm,Calm,-,N/A,,Scattered Clouds,0,2013-09-21 10:55:00
4:15 AM,53.6,50.0,88,29.73,10.0,Calm,Calm,-,N/A,,Scattered Clouds,0,2013-09-21 11:15:00
4:35 AM,53.6,50.0,88,29.73,10.0,Calm,Calm,-,N/A,,Partly Cloudy,0,2013-09-21 11:35:00
4:55 AM,53.6,50.0,88,29.72,10.0,Calm,Calm,-,N/A,,Mostly Cloudy,0,2013-09-21 11:55:00
5:15 AM,53.6,50.0,88,29.72,10.0,Calm,Calm,-,N/A,,Overcast,0,2013-09-21 12:15:00
5:35 AM,53.6,51.8,94,29.73,10.0,SSE,3.5,-,N/A,,Overcast,150,2013-09-21 12:35:00
5:55 AM,53.6,51.8,94,29.73,10.0,Calm,Calm,-,N/A,,Overcast,0,2013-09-21 12:55:00
6:15 AM,55.4,51.8,88,29.73,10.0,Calm,Calm,-,N/A,,Overcast,0,2013-09-21 13:15:00
6:35 AM,55.4,51.8,88,29.73,10.0,Calm,Calm,-,N/A,,Overcast,0,2013-09-21 13:35:00
6:55 AM,55.4,51.8,88,29.73,9.0,Calm,Calm,-,N/A,,Overcast,0,2013-09-21 13:55:00
7:15 AM,53.6,50.0,88,29.73,10.0,Calm,Calm,-,N/A,,Mostly Cloudy,0,2013-09-21 14:15:00
7:35 AM,53.6,50.0,88,29.73,9.0,Calm,Calm,-,N/A,,Scattered Clouds,0,2013-09-21 14:35:00
7:55 AM,53.6,51.8,94,29.73,10.0,Calm,Calm,-,N/A,,Overcast,0,2013-09-21 14:55:00
8:15 AM,55.4,51.8,88,29.74,10.0,Calm,Calm,-,N/A,,Scattered Clouds,0,2013-09-21 15:15:00
8:35 AM,55.4,51.8,88,29.74,10.0,Calm,Calm,-,N/A,,Mostly Cloudy,0,2013-09-21 15:35:00
8:55 AM,57.2,53.6,88,29.74,10.0,Calm,Calm,-,N/A,,Overcast,0,2013-09-21 15:55:00
9:15 AM,57.2,53.6,88,29.75,10.0,Calm,Calm,-,N/A,,Mostly Cloudy,0,2013-09-21 16:15:00
9:35 AM,60.8,53.6,77,29.75,9.0,Calm,Calm,-,N/A,,Mostly Cloudy,0,2013-09-21 16:35:00
9:55 AM,60.8,53.6,77,29.75,10.0,Calm,Calm,-,N/A,,Mostly Cloudy,0,2013-09-21 16:55:00
10:15 AM,62.6,53.6,72,29.75,10.0,Calm,Calm,-,N/A,,Mostly Cloudy,0,2013-09-21 17:15:00
10:35 AM,62.6,53.6,72,29.75,10.0,SSE,4.6,-,N/A,,Mostly Cloudy,160,2013-09-21 17:35:00
10:55 AM,64.4,53.6,68,29.75,10.0,SSW,5.8,-,N/A,,Scattered Clouds,200,2013-09-21 17:55:00
11:15 AM,64.4,53.6,68,29.75,10.0,SSW,3.5,-,N/A,,Mostly Cloudy,210,2013-09-21 18:15:00
11:35 AM,64.4,53.6,68,29.75,10.0,Calm,Calm,-,N/A,,Partly Cloudy,0,2013-09-21 18:35:00
11:55 AM,66.2,53.6,64,29.75,10.0,South,4.6,-,N/A,,Partly Cloudy,170,2013-09-21 18:55:00
12:15 PM,68.0,53.6,60,29.75,10.0,SSW,5.8,-,N/A,,Scattered Clouds,200,2013-09-21 19:15:00
12:35 PM,66.2,53.6,64,29.75,10.0,SSW,6.9,-,N/A,,Mostly Cloudy,200,2013-09-21 19:35:00
12:55 PM,66.2,51.8,60,29.75,10.0,South,6.9,-,N/A,,Overcast,190,2013-09-21 19:55:00
1:15 PM,66.2,51.8,60,29.74,10.0,South,5.8,-,N/A,,Overcast,170,2013-09-21 20:15:00
1:35 PM,66.2,51.8,60,29.74,10.0,South,5.8,-,N/A,,Overcast,190,2013-09-21 20:35:00
1:55 PM,64.4,51.8,64,29.74,10.0,South,9.2,-,N/A,,Overcast,180,2013-09-21 20:55:00
2:15 PM,62.6,55.4,77,29.74,10.0,SSE,5.8,-,N/A,,Overcast,150,2013-09-21 21:15:00
2:35 PM,62.6,55.4,77,29.74,10.0,SSE,3.5,-,0.02,,Overcast,160,2013-09-21 21:35:00
2:55 PM,62.6,55.4,77,29.74,10.0,SE,5.8,-,0.03,,Overcast,140,2013-09-21 21:55:00
3:15 PM,62.6,55.4,77,29.75,10.0,SSE,3.5,-,N/A,,Overcast,150,2013-09-21 22:15:00
3:35 PM,62.6,55.4,77,29.75,10.0,SSE,8.1,-,0.01,,Mostly Cloudy,150,2013-09-21 22:35:00
3:55 PM,60.8,55.4,82,29.76,10.0,SSE,3.5,-,0.01,,Overcast,160,2013-09-21 22:55:00
4:15 PM,62.6,53.6,72,29.76,10.0,Calm,Calm,-,N/A,,Mostly Cloudy,0,2013-09-21 23:15:00
4:35 PM,62.6,53.6,72,29.76,10.0,Calm,Calm,-,N/A,,Overcast,0,2013-09-21 23:35:00
4:55 PM,62.6,53.6,72,29.77,10.0,West,3.5,-,N/A,,Mostly Cloudy,270,2013-09-21 23:55:00
5:15 PM,62.6,53.6,72,29.77,10.0,Calm,Calm,-,N/A,,Overcast,0,2013-09-22 00:15:00
5:35 PM,62.6,53.6,72,29.77,10.0,Calm,Calm,-,N/A,,Overcast,0,2013-09-22 00:35:00
5:55 PM,62.6,53.6,72,29.77,10.0,Calm,Calm,-,N/A,,Overcast,0,2013-09-22 00:55:00
6:15 PM,60.8,53.6,77,29.77,10.0,WNW,3.5,-,N/A,,Mostly Cloudy,290,2013-09-22 01:15:00
6:35 PM,60.8,51.8,72,29.77,10.0,Calm,Calm,-,N/A,,Overcast,0,2013-09-22 01:35:00
6:55 PM,60.8,53.6,77,29.78,10.0,Calm,Calm,-,N/A,,Overcast,0,2013-09-22 01:55:00
7:15 PM,60.8,53.6,77,29.78,10.0,Calm,Calm,-,N/A,,Mostly Cloudy,0,2013-09-22 02:15:00
7:35 PM,60.8,51.8,72,29.78,10.0,Calm,Calm,-,N/A,,Overcast,0,2013-09-22 02:35:00
7:55 PM,60.8,51.8,72,29.78,10.0,Calm,Calm,-,N/A,,Overcast,0,2013-09-22 02:55:00
8:15 PM,59.0,51.8,77,29.78,10.0,Calm,Calm,-,N/A,,Overcast,0,2013-09-22 03:15:00
8:35 PM,59.0,51.8,77,29.78,10.0,Calm,Calm,-,N/A,,Overcast,0,2013-09-22 03:35:00
8:55 PM,57.2,53.6,88,29.79,10.0,Calm,Calm,-,N/A,,Overcast,0,2013-09-22 03:55:00
9:15 PM,57.2,51.8,82,29.79,10.0,ESE,3.5,-,N/A,,Overcast,120,2013-09-22 04:15:00
9:35 PM,57.2,51.8,82,29.79,10.0,SE,3.5,-,N/A,,Overcast,140,2013-09-22 04:35:00
9:55 PM,57.2,53.6,88,29.79,10.0,SSE,4.6,-,N/A,,Overcast,150,2013-09-22 04:55:00
10:15 PM,57.2,53.6,88,29.79,10.0,SE,4.6,-,N/A,,Overcast,140,2013-09-22 05:15:00
10:35 PM,57.2,53.6,88,29.79,10.0,SE,4.6,-,N/A,,Mostly Cloudy,140,2013-09-22 05:35:00
10:55 PM,57.2,53.6,88,29.79,10.0,SSE,4.6,-,N/A,,Mostly Cloudy,160,2013-09-22 05:55:00
11:15 PM,57.2,53.6,88,29.80,10.0,SSE,3.5,-,N/A,,Overcast,160,2013-09-22 06:15:00
11:35 PM,57.2,53.6,88,29.79,10.0,SSE,3.5,-,N/A,,Mostly Cloudy,160,2013-09-22 06:35:00
11:55 PM,57.2,53.6,88,29.79,10.0,SSE,4.6,-,N/A,,Overcast,150,2013-09-22 06:55:00